contact:dominique.lefevre@mio.osupytheas.fr, maurice.libes@osupytheas.fr, didier.mallarino@osupytheas.fr
Project:EMSO http://www.emso-fr.org/EMSO-France
Depth: 2436.0 m
Title:EMSO Ligure Ouest : Data MII capteur AQUADOPP
Date,Latitude,Longitude,X_East,Y_North,Z_Up,Amplitude_X,Amplitude_Y,Amplitude_Z,Batterie,SoundSpeed,Heading,Pitch,Roll,Pressure,TIS,Speed,Direction
, degrees North, degrees East, m.s-1, m.s-1,m.s-1, 1, 1, 1, Volt, m.s-1, degree, degree, degree, dbar, degree_C, m.s-1, degree
2019-08-18T00:00:41,42.805,6.029,-0.007,0.003,0.0,104.0,106.0,100.0,13.3,1505.3,323.0,-0.7,1.8,2470.134,13.33,0.007,293.2
2019-08-18T00:03:42,42.805,6.029,-0.043,0.0,-0.072,102.0,106.0,100.0,13.4,1505.3,324.9,-0.7,1.8,2470.135,13.33,0.043,270.0
2019-08-18T00:06:43,42.805,6.029,-0.036,0.009,-0.063,104.0,106.0,100.0,13.4,1505.3,323.0,-0.7,1.9,2470.164,13.33,0.037,284.0
2019-08-18T00:09:44,42.805,6.029,-0.046,0.003,-0.066,103.0,105.0,101.0,13.4,1505.4,324.3,-0.7,1.8,2470.121,13.34,0.046,273.7
2019-08-18T00:12:45,42.805,6.029,-0.037,-0.004,-0.044,102.0,106.0,100.0,13.4,1505.4,325.4,-0.7,1.8,2470.14,13.34,0.037,263.8
2019-08-18T00:15:46,42.805,6.029,0.014,0.0,-0.016,103.0,106.0,100.0,13.4,1505.4,328.3,-0.7,1.8,2470.11,13.34,0.014,90.0
2019-08-18T00:18:47,42.805,6.029,0.012,-0.003,-0.017,103.0,105.0,99.0,13.3,1505.4,327.0,-0.7,1.8,2470.105,13.34,0.012,104.0
2019-08-18T00:21:48,42.805,6.029,0.023,0.013,-0.035,103.0,106.0,100.0,13.4,1505.4,326.5,-0.7,1.9,2470.044,13.34,0.026,60.5
2019-08-18T00:24:49,42.805,6.029,0.013,0.008,-0.009,103.0,106.0,98.0,13.4,1505.4,327.4,-0.7,1.9,2470.079,13.34,0.015,58.4
2019-08-18T00:27:50,42.805,6.029,0.0,-0.003,-0.002,103.0,107.0,100.0,13.4,1505.4,327.4,-0.8,1.8,2470.082,13.34,0.003,180.0
2019-08-18T00:30:51,42.805,6.029,-0.013,0.009,-0.006,103.0,106.0,100.0,13.3,1505.4,324.9,-0.7,1.8,2470.123,13.34,0.015,304.7
2019-08-18T00:33:52,42.805,6.029,-0.048,-0.013,-0.037,102.0,106.0,99.0,13.3,1505.4,324.8,-0.7,1.8,2470.082,13.34,0.049,254.8
2019-08-18T00:36:53,42.805,6.029,-0.001,0.007,-0.028,103.0,106.0,99.0,13.4,1505.4,324.4,-0.7,1.8,2470.093,13.34,0.007,351.9
2019-08-18T00:39:54,42.805,6.029,0.028,0.005,0.016,103.0,106.0,100.0,13.4,1505.4,326.6,-0.7,1.8,2470.05,13.34,0.028,79.9
2019-08-18T00:42:55,42.805,6.029,0.0,-0.011,0.014,102.0,107.0,99.0,13.3,1505.4,327.9,-0.7,1.8,2470.096,13.34,0.011,180.0
2019-08-18T00:45:56,42.805,6.029,-0.025,0.005,-0.035,103.0,107.0,101.0,13.4,1505.4,324.6,-0.8,1.8,2470.098,13.34,0.025,281.3
2019-08-18T00:48:57,42.805,6.029,-0.031,-0.003,-0.015,102.0,107.0,100.0,13.4,1505.4,326.4,-0.7,1.8,2470.123,13.34,0.031,264.5
2019-08-18T00:51:58,42.805,6.029,-0.026,-0.011,-0.063,104.0,106.0,103.0,13.4,1505.4,323.7,-0.7,1.8,2470.06,13.34,0.028,247.1
2019-08-18T00:54:59,42.805,6.029,-0.033,0.024,-0.01,105.0,106.0,99.0,13.3,1505.4,326.5,-0.7,1.8,2470.086,13.34,0.04,306.0
2019-08-18T00:58:00,42.805,6.029,-0.052,-0.015,-0.087,103.0,107.0,100.0,13.4,1505.4,326.1,-0.7,1.8,2470.104,13.34,0.054,253.9
2019-08-18T01:01:01,42.805,6.029,-0.031,-0.005,-0.041,104.0,106.0,101.0,13.4,1505.4,327.0,-0.7,1.8,2470.076,13.34,0.031,260.8
2019-08-18T01:04:02,42.805,6.029,-0.039,0.0,-0.042,105.0,106.0,101.0,13.4,1505.4,323.7,-0.8,1.8,2470.078,13.34,0.039,270.0
2019-08-18T01:07:03,42.805,6.029,-0.036,0.01,-0.032,103.0,105.0,100.0,13.4,1505.4,327.3,-0.7,1.9,2470.084,13.34,0.037,285.5
2019-08-18T01:10:04,42.805,6.029,-0.039,-0.001,-0.051,104.0,106.0,100.0,13.3,1505.4,324.6,-0.7,1.8,2470.063,13.34,0.039,268.5
2019-08-18T01:13:05,42.805,6.029,-0.04,-0.006,-0.049,104.0,106.0,100.0,13.4,1505.4,325.6,-0.7,1.8,2470.062,13.34,0.04,261.5
2019-08-18T01:16:06,42.805,6.029,-0.054,-0.004,-0.034,104.0,107.0,100.0,13.4,1505.4,327.2,-0.7,1.8,2470.062,13.34,0.054,265.8
2019-08-18T01:19:07,42.805,6.029,-0.053,0.012,-0.062,105.0,108.0,102.0,13.4,1505.4,324.1,-0.7,1.8,2470.089,13.34,0.054,282.8
2019-08-18T01:22:08,42.805,6.029,-0.031,0.004,-0.023,104.0,107.0,101.0,13.4,1505.4,325.0,-0.7,1.9,2470.053,13.34,0.031,277.3
2019-08-18T01:25:09,42.805,6.029,-0.023,0.006,-0.047,104.0,106.0,99.0,13.4,1505.4,324.8,-0.7,1.9,2470.069,13.34,0.023,284.6
2019-08-18T01:28:10,42.805,6.029,-0.013,0.011,-0.04,102.0,108.0,101.0,13.4,1505.4,324.2,-0.7,1.8,2470.089,13.34,0.017,310.2
2019-08-18T01:31:11,42.805,6.029,0.01,0.01,-0.025,105.0,109.0,100.0,13.4,1505.4,323.9,-0.7,1.9,2470.073,13.34,0.014,45.0
2019-08-18T01:34:12,42.805,6.029,-0.007,-0.022,0.011,103.0,108.0,101.0,13.3,1505.4,324.2,-0.7,1.8,2470.075,13.34,0.023,197.6
2019-08-18T01:37:13,42.805,6.029,0.032,0.01,0.009,104.0,107.0,100.0,13.3,1505.4,324.4,-0.7,1.8,2470.053,13.34,0.033,72.6
2019-08-18T01:40:14,42.805,6.029,0.005,0.01,-0.009,105.0,107.0,99.0,13.4,1505.4,328.4,-0.7,1.8,2470.04,13.34,0.011,26.6
2019-08-18T01:43:15,42.805,6.029,0.036,-0.007,0.016,105.0,107.0,99.0,13.3,1505.4,326.3,-0.7,1.8,2470.082,13.34,0.036,101.0
2019-08-18T01:46:16,42.805,6.029,0.002,0.01,-0.023,104.0,107.0,101.0,13.3,1505.4,325.6,-0.7,1.8,2470.079,13.34,0.01,11.3
2019-08-18T01:49:17,42.805,6.029,0.035,0.018,0.011,102.0,108.0,99.0,13.4,1505.4,324.5,-0.7,1.8,2470.104,13.34,0.039,62.8
2019-08-18T01:52:18,42.805,6.029,0.003,0.005,-0.006,101.0,108.0,100.0,13.4,1505.4,323.0,-0.7,1.8,2470.031,13.34,0.005,31.0
2019-08-18T01:55:19,42.805,6.029,-0.001,-0.002,-0.021,104.0,108.0,102.0,13.3,1505.4,324.4,-0.7,1.8,2470.084,13.34,0.002,206.6
2019-08-18T01:58:20,42.805,6.029,-0.036,0.005,-0.066,105.0,108.0,99.0,13.3,1505.4,323.6,-0.8,1.8,2470.037,13.34,0.036,277.9
2019-08-18T02:01:21,42.805,6.029,-0.036,-0.013,0.0,103.0,110.0,100.0,13.3,1505.4,327.0,-0.7,1.8,2470.049,13.34,0.038,250.1
2019-08-18T02:04:22,42.805,6.029,-0.045,0.021,-0.067,103.0,108.0,101.0,13.4,1505.4,326.8,-0.7,1.8,2470.031,13.34,0.049,295.0
2019-08-18T02:07:23,42.805,6.029,-0.028,0.005,-0.044,103.0,108.0,100.0,13.4,1505.4,328.6,-0.7,1.8,2470.021,13.34,0.028,280.1
2019-08-18T02:10:24,42.805,6.029,-0.034,0.016,-0.038,101.0,109.0,101.0,13.4,1505.4,324.5,-0.7,1.9,2470.021,13.34,0.037,295.2
2019-08-18T02:13:25,42.805,6.029,-0.024,0.006,-0.07,102.0,110.0,99.0,13.3,1505.4,325.3,-0.7,1.9,2470.068,13.34,0.024,284.0
2019-08-18T02:16:26,42.805,6.029,-0.029,-0.007,-0.03,104.0,107.0,100.0,13.3,1505.4,327.4,-0.8,1.8,2470.055,13.34,0.029,256.4
2019-08-18T02:19:27,42.805,6.029,-0.034,0.014,-0.033,103.0,108.0,101.0,13.3,1505.4,326.6,-0.7,1.8,2470.016,13.34,0.036,292.4
2019-08-18T02:22:28,42.805,6.029,-0.028,0.007,-0.037,101.0,109.0,100.0,13.3,1505.4,324.5,-0.7,1.8,2470.055,13.34,0.028,284.0
2019-08-18T02:25:29,42.805,6.029,-0.009,-0.012,-0.024,104.0,107.0,101.0,13.4,1505.4,325.4,-0.7,1.8,2470.041,13.34,0.015,216.9
2019-08-18T02:28:30,42.805,6.029,-0.039,0.014,-0.028,103.0,106.0,100.0,13.4,1505.4,327.8,-0.7,1.8,2470.018,13.34,0.041,289.7
2019-08-18T02:31:31,42.805,6.029,0.01,0.002,-0.002,104.0,108.0,102.0,13.3,1505.4,324.1,-0.7,1.8,2470.047,13.34,0.01,78.7
2019-08-18T02:34:32,42.805,6.029,0.0,0.012,-0.052,106.0,107.0,99.0,13.4,1505.4,326.9,-0.7,1.8,2469.999,13.34,0.012,0.0
2019-08-18T02:37:33,42.805,6.029,-0.009,-0.012,-0.044,103.0,106.0,100.0,13.4,1505.4,326.4,-0.8,1.8,2470.015,13.34,0.015,216.9
2019-08-18T02:40:34,42.805,6.029,-0.03,0.007,-0.055,103.0,107.0,100.0,13.4,1505.4,322.9,-0.7,1.8,2469.97,13.34,0.03,283.1
2019-08-18T02:43:35,42.805,6.029,0.004,0.011,-0.024,104.0,107.0,100.0,13.3,1505.4,326.4,-0.7,1.8,2470.046,13.34,0.011,20.0
2019-08-18T02:46:36,42.805,6.029,0.008,0.011,0.014,104.0,107.0,98.0,13.4,1505.4,326.8,-0.7,1.8,2470.005,13.34,0.013,36.0
2019-08-18T02:49:37,42.805,6.029,-0.027,-0.003,-0.02,102.0,108.0,99.0,13.4,1505.4,325.5,-0.7,1.8,2470.035,13.34,0.027,263.7
2019-08-18T02:52:38,42.805,6.029,-0.021,0.008,-0.015,102.0,108.0,100.0,13.3,1505.4,323.4,-0.7,1.8,2470.028,13.34,0.022,290.9
2019-08-18T02:55:39,42.805,6.029,-0.015,-0.001,-0.051,104.0,109.0,98.0,13.3,1505.4,324.1,-0.7,1.9,2470.057,13.34,0.015,266.2
2019-08-18T02:58:40,42.805,6.029,0.013,0.009,0.014,104.0,108.0,99.0,13.4,1505.4,323.3,-0.7,1.8,2469.996,13.35,0.015,55.3
2019-08-18T03:01:41,42.805,6.029,0.024,-0.017,0.009,102.0,108.0,100.0,13.4,1505.4,323.3,-0.7,1.8,2470.012,13.34,0.029,125.3
2019-08-18T03:04:42,42.805,6.029,0.011,0.014,0.024,104.0,110.0,99.0,13.4,1505.4,323.2,-0.7,1.8,2469.988,13.35,0.017,38.2
2019-08-18T03:07:43,42.805,6.029,0.009,0.01,0.02,102.0,107.0,100.0,13.4,1505.4,324.0,-0.7,1.8,2470.004,13.35,0.013,42.0
2019-08-18T03:10:44,42.805,6.029,-0.006,0.024,0.019,101.0,108.0,100.0,13.4,1505.4,324.6,-0.7,1.8,2470.028,13.35,0.024,346.0
2019-08-18T03:13:45,42.805,6.029,0.039,0.017,0.007,102.0,108.0,102.0,13.4,1505.4,328.2,-0.7,1.8,2470.006,13.35,0.042,66.5
2019-08-18T03:16:46,42.805,6.029,0.024,0.018,0.03,105.0,107.0,99.0,13.4,1505.4,327.8,-0.8,1.8,2469.977,13.34,0.03,53.1
2019-08-18T03:19:47,42.805,6.029,0.008,-0.003,-0.025,102.0,108.0,99.0,13.4,1505.4,324.8,-0.7,1.8,2470.02,13.34,0.008,110.6
2019-08-18T03:22:48,42.805,6.029,0.03,0.0,-0.014,102.0,107.0,101.0,13.4,1505.4,327.3,-0.7,1.8,2469.999,13.34,0.03,90.0
2019-08-18T03:25:49,42.805,6.029,0.033,-0.012,-0.002,102.0,110.0,100.0,13.3,1505.4,327.7,-0.7,1.8,2469.968,13.34,0.035,110.0
2019-08-18T03:28:50,42.805,6.029,0.015,-0.006,0.01,103.0,108.0,99.0,13.3,1505.4,325.3,-0.7,1.8,2470.038,13.34,0.016,111.8
2019-08-18T03:31:51,42.805,6.029,0.02,0.005,-0.016,103.0,109.0,99.0,13.4,1505.4,325.3,-0.7,1.8,2470.04,13.34,0.02,76.0
2019-08-18T03:34:52,42.805,6.029,0.007,0.014,0.012,105.0,108.0,99.0,13.4,1505.4,325.1,-0.7,1.8,2469.98,13.35,0.015,26.6
2019-08-18T03:37:53,42.805,6.029,0.002,0.007,-0.023,104.0,107.0,99.0,13.3,1505.4,328.4,-0.7,1.8,2469.989,13.35,0.007,15.9
2019-08-18T03:40:54,42.805,6.029,-0.006,0.011,-0.033,102.0,107.0,100.0,13.4,1505.4,322.8,-0.7,1.8,2469.991,13.34,0.012,331.4
2019-08-18T03:43:55,42.805,6.029,0.011,-0.001,-0.031,105.0,108.0,100.0,13.3,1505.4,325.7,-0.7,1.8,2470.008,13.34,0.011,95.2
2019-08-18T03:46:56,42.805,6.029,0.001,-0.016,-0.007,104.0,108.0,99.0,13.4,1505.4,325.0,-0.7,1.8,2470.031,13.35,0.016,176.4
2019-08-18T03:49:57,42.805,6.029,-0.004,0.004,-0.02,102.0,108.0,100.0,13.4,1505.4,324.3,-0.7,1.9,2470.031,13.35,0.005,315.0
2019-08-18T03:52:58,42.805,6.029,0.0,-0.002,-0.024,102.0,107.0,101.0,13.4,1505.4,328.2,-0.7,1.8,2470.036,13.35,0.002,180.0
2019-08-18T03:55:59,42.805,6.029,-0.002,-0.019,-0.014,105.0,107.0,99.0,13.4,1505.4,326.3,-0.7,1.8,2470.031,13.35,0.019,186.0
2019-08-18T03:59:00,42.805,6.029,-0.013,0.014,-0.037,105.0,107.0,99.0,13.4,1505.4,327.5,-0.7,1.8,2470.024,13.34,0.019,317.1
2019-08-18T04:02:01,42.805,6.029,-0.024,-0.007,-0.013,103.0,108.0,100.0,13.4,1505.4,324.6,-0.7,1.8,2469.989,13.34,0.025,253.7
2019-08-18T04:05:02,42.805,6.029,-0.011,0.0,-0.016,104.0,107.0,99.0,13.3,1505.4,327.4,-0.8,1.8,2469.967,13.34,0.011,270.0
2019-08-18T04:08:03,42.805,6.029,0.004,-0.006,-0.021,102.0,107.0,98.0,13.3,1505.4,327.8,-0.7,1.8,2470.037,13.34,0.007,146.3
2019-08-18T04:11:04,42.805,6.029,-0.019,0.002,-0.039,101.0,106.0,100.0,13.3,1505.4,323.4,-0.7,1.8,2470.049,13.34,0.019,276.0
2019-08-18T04:14:05,42.805,6.029,-0.021,-0.008,-0.046,102.0,106.0,98.0,13.4,1505.4,326.7,-0.7,1.8,2470.016,13.34,0.022,249.1
2019-08-18T04:17:06,42.805,6.029,-0.025,0.0,-0.058,101.0,107.0,99.0,13.4,1505.4,325.2,-0.7,1.8,2470.006,13.34,0.025,270.0
2019-08-18T04:20:07,42.805,6.029,-0.012,-0.018,-0.037,103.0,107.0,99.0,13.3,1505.3,324.7,-0.7,1.8,2470.029,13.33,0.021,213.7
2019-08-18T04:23:08,42.805,6.029,-0.011,-0.026,-0.048,102.0,107.0,100.0,13.4,1505.3,324.4,-0.7,1.8,2470.047,13.33,0.028,202.9
2019-08-18T04:26:09,42.805,6.029,-0.019,-0.005,-0.013,102.0,106.0,99.0,13.3,1505.3,325.6,-0.7,1.9,2470.03,13.33,0.019,255.3
2019-08-18T04:29:10,42.805,6.029,-0.012,0.012,-0.028,102.0,107.0,100.0,13.3,1505.3,326.4,-0.7,1.8,2470.049,13.33,0.016,315.0
2019-08-18T04:32:11,42.805,6.029,-0.008,-0.008,-0.071,103.0,106.0,100.0,13.3,1505.3,327.3,-0.7,1.8,2470.068,13.33,0.011,225.0
2019-08-18T04:35:12,42.805,6.029,0.001,-0.016,-0.033,102.0,107.0,99.0,13.3,1505.3,323.5,-0.7,1.8,2470.031,13.33,0.016,176.4
2019-08-18T04:38:13,42.805,6.029,-0.019,0.009,-0.023,102.0,107.0,100.0,13.3,1505.3,325.6,-0.7,1.8,2470.032,13.33,0.021,295.3
2019-08-18T04:41:14,42.805,6.029,-0.042,-0.006,-0.056,103.0,107.0,99.0,13.4,1505.3,328.2,-0.7,1.8,2470.05,13.33,0.042,261.9
2019-08-18T04:44:15,42.805,6.029,-0.017,0.006,-0.038,101.0,105.0,99.0,13.3,1505.3,326.3,-0.7,1.8,2470.004,13.33,0.018,289.4
2019-08-18T04:47:16,42.805,6.029,0.001,-0.009,-0.008,104.0,106.0,100.0,13.4,1505.3,324.5,-0.7,1.9,2470.019,13.33,0.009,173.7
2019-08-18T04:50:17,42.805,6.029,-0.016,0.022,-0.052,101.0,106.0,100.0,13.3,1505.3,323.5,-0.7,1.8,2470.002,13.33,0.027,324.0
2019-08-18T04:53:18,42.805,6.029,-0.014,-0.027,-0.04,104.0,107.0,100.0,13.4,1505.3,326.6,-0.7,1.8,2470.023,13.33,0.03,207.4
2019-08-18T04:56:19,42.805,6.029,-0.001,0.005,-0.022,102.0,106.0,100.0,13.3,1505.3,325.5,-0.7,1.8,2470.017,13.33,0.005,348.7
2019-08-18T04:59:20,42.805,6.029,-0.034,-0.019,-0.038,101.0,106.0,100.0,13.4,1505.3,326.3,-0.7,1.8,2470.047,13.33,0.038,240.8
2019-08-18T05:02:21,42.805,6.029,0.011,-0.023,0.006,102.0,108.0,98.0,13.4,1505.3,327.9,-0.7,1.8,2470.026,13.33,0.025,154.4
2019-08-18T05:05:22,42.805,6.029,-0.021,-0.013,-0.058,102.0,105.0,98.0,13.4,1505.3,323.1,-0.7,1.9,2470.034,13.33,0.024,238.2
2019-08-18T05:08:23,42.805,6.029,-0.009,0.003,-0.024,103.0,107.0,99.0,13.3,1505.3,325.9,-0.7,1.8,2470.048,13.33,0.009,288.4
2019-08-18T05:11:24,42.805,6.029,0.01,0.003,-0.013,104.0,108.0,98.0,13.4,1505.3,326.5,-0.7,1.8,2470.027,13.33,0.01,73.3
2019-08-18T05:14:25,42.805,6.029,-0.044,-0.001,-0.057,101.0,108.0,100.0,13.4,1505.3,327.9,-0.7,1.9,2470.114,13.33,0.044,268.7
2019-08-18T05:17:26,42.805,6.029,0.009,0.009,-0.037,101.0,106.0,99.0,13.4,1505.3,324.5,-0.7,1.8,2470.037,13.33,0.012,45.0
2019-08-18T05:20:27,42.805,6.029,0.051,-0.003,-0.007,103.0,106.0,100.0,13.4,1505.3,325.9,-0.7,1.9,2470.067,13.33,0.051,93.4
2019-08-18T05:23:28,42.805,6.029,0.008,-0.002,-0.012,103.0,108.0,98.0,13.4,1505.3,326.5,-0.7,1.8,2470.019,13.33,0.008,104.0
2019-08-18T05:26:29,42.805,6.029,0.037,0.011,0.0,102.0,107.0,99.0,13.3,1505.3,326.3,-0.7,1.8,2470.029,13.33,0.038,73.4
2019-08-18T05:29:30,42.805,6.029,0.035,0.003,0.009,103.0,109.0,100.0,13.4,1505.3,323.7,-0.7,1.8,2470.071,13.33,0.035,85.1
2019-08-18T05:32:31,42.805,6.029,0.02,0.003,0.011,102.0,106.0,99.0,13.3,1505.3,324.9,-0.7,1.9,2470.071,13.33,0.02,81.5
2019-08-18T05:35:32,42.805,6.029,0.036,-0.004,0.021,105.0,107.0,99.0,13.3,1505.3,326.4,-0.7,1.8,2470.039,13.33,0.036,96.3
2019-08-18T05:38:33,42.805,6.029,0.046,0.001,0.049,102.0,106.0,100.0,13.4,1505.3,326.6,-0.7,1.8,2470.018,13.33,0.046,88.8
2019-08-18T05:41:34,42.805,6.029,0.017,0.007,-0.009,103.0,107.0,99.0,13.4,1505.3,326.3,-0.7,1.8,2470.113,13.33,0.018,67.6
2019-08-18T05:44:35,42.805,6.029,0.035,0.001,0.016,103.0,105.0,98.0,13.4,1505.3,325.8,-0.7,1.8,2470.049,13.33,0.035,88.4
2019-08-18T05:47:36,42.805,6.029,-0.01,-0.005,-0.031,103.0,107.0,99.0,13.4,1505.3,328.3,-0.7,1.8,2470.069,13.33,0.011,243.4
2019-08-18T05:50:37,42.805,6.029,0.017,-0.008,0.02,102.0,103.0,101.0,13.4,1505.3,323.5,-0.7,1.8,2470.06,13.33,0.018,115.2
2019-08-18T05:53:38,42.805,6.029,0.038,-0.015,0.014,103.0,107.0,99.0,13.4,1505.3,326.8,-0.7,1.8,2470.067,13.33,0.04,111.5
2019-08-18T05:56:39,42.805,6.029,0.01,0.0,0.018,102.0,106.0,100.0,13.4,1505.3,327.7,-0.7,1.8,2470.065,13.33,0.01,90.0
2019-08-18T05:59:40,42.805,6.029,0.033,-0.004,0.029,102.0,106.0,100.0,13.4,1505.3,323.5,-0.7,1.8,2470.1,13.33,0.033,96.9
2019-08-18T06:02:41,42.805,6.029,0.041,-0.012,0.0,103.0,107.0,100.0,13.4,1505.3,325.8,-0.7,1.8,2470.105,13.33,0.042,106.3
2019-08-18T06:05:42,42.805,6.029,0.018,-0.025,-0.003,104.0,106.0,99.0,13.4,1505.3,326.0,-0.7,1.9,2470.037,13.33,0.03,144.2
2019-08-18T06:08:43,42.805,6.029,0.034,0.001,0.028,104.0,106.0,98.0,13.4,1505.3,327.0,-0.7,1.8,2470.053,13.33,0.034,88.3
2019-08-18T06:11:44,42.805,6.029,0.022,0.001,0.009,102.0,106.0,99.0,13.4,1505.3,324.8,-0.7,1.8,2470.078,13.33,0.022,87.4
2019-08-18T06:14:45,42.805,6.029,-0.001,0.005,-0.002,104.0,107.0,101.0,13.3,1505.3,327.9,-0.7,1.8,2470.093,13.33,0.005,348.7
2019-08-18T06:17:46,42.805,6.029,0.018,-0.025,-0.004,103.0,106.0,99.0,13.4,1505.3,324.8,-0.7,1.8,2470.074,13.33,0.03,144.2
2019-08-18T06:20:47,42.805,6.029,-0.004,-0.007,-0.02,104.0,107.0,99.0,13.4,1505.3,328.3,-0.7,1.8,2470.106,13.33,0.008,209.7
2019-08-18T06:23:48,42.805,6.029,-0.011,-0.01,-0.019,105.0,106.0,102.0,13.4,1505.3,323.0,-0.7,1.9,2470.076,13.33,0.014,227.7
2019-08-18T06:26:49,42.805,6.029,-0.017,0.002,-0.034,105.0,107.0,100.0,13.4,1505.3,323.6,-0.7,1.8,2470.072,13.33,0.017,276.7
2019-08-18T06:29:50,42.805,6.029,-0.042,-0.013,-0.049,101.0,106.0,101.0,13.3,1505.3,323.5,-0.7,1.8,2470.103,13.33,0.043,252.8
2019-08-18T06:32:51,42.805,6.029,0.0,0.001,-0.013,103.0,106.0,100.0,13.4,1505.3,325.8,-0.7,1.8,2470.086,13.33,0.001,0.0
2019-08-18T06:35:52,42.805,6.029,0.016,-0.016,-0.022,103.0,106.0,100.0,13.3,1505.3,323.4,-0.8,1.8,2470.093,13.33,0.022,135.0
2019-08-18T06:38:53,42.805,6.029,0.0,-0.012,-0.072,103.0,106.0,100.0,13.4,1505.3,327.2,-0.7,1.8,2470.088,13.33,0.012,180.0
2019-08-18T06:41:54,42.805,6.029,0.007,-0.027,-0.039,102.0,106.0,102.0,13.4,1505.3,322.6,-0.7,1.8,2470.102,13.33,0.027,165.5
2019-08-18T06:44:55,42.805,6.029,0.016,-0.003,-0.045,102.0,106.0,99.0,13.4,1505.3,327.6,-0.7,1.8,2470.116,13.33,0.016,100.6
2019-08-18T06:47:56,42.805,6.029,0.023,-0.001,-0.008,103.0,106.0,99.0,13.4,1505.3,327.9,-0.7,1.8,2470.127,13.33,0.023,92.5
2019-08-18T06:50:57,42.805,6.029,0.01,0.003,0.006,101.0,106.0,99.0,13.4,1505.3,323.8,-0.7,1.8,2470.076,13.33,0.01,73.3
2019-08-18T06:53:58,42.805,6.029,0.016,-0.016,-0.005,103.0,105.0,99.0,13.4,1505.3,324.9,-0.7,1.8,2470.137,13.33,0.022,135.0
2019-08-18T06:56:59,42.805,6.029,0.032,0.0,0.006,104.0,107.0,99.0,13.4,1505.3,323.3,-0.7,1.8,2470.115,13.33,0.032,90.0
2019-08-18T07:00:00,42.805,6.029,0.012,-0.009,-0.027,103.0,107.0,100.0,13.4,1505.3,326.8,-0.7,1.8,2470.122,13.33,0.015,126.9
2019-08-18T07:03:01,42.805,6.029,0.031,-0.004,0.015,104.0,106.0,101.0,13.4,1505.3,326.7,-0.7,1.9,2470.099,13.33,0.031,97.3
2019-08-18T07:06:02,42.805,6.029,0.003,-0.009,-0.018,103.0,106.0,101.0,13.4,1505.3,326.3,-0.7,1.8,2470.124,13.33,0.009,161.6
2019-08-18T07:09:03,42.805,6.029,-0.008,-0.009,-0.023,104.0,109.0,100.0,13.4,1505.3,326.4,-0.7,1.8,2470.131,13.33,0.012,221.6
2019-08-18T07:12:04,42.805,6.029,0.002,0.002,0.005,104.0,108.0,101.0,13.3,1505.3,326.4,-0.7,1.8,2470.117,13.33,0.002,45.0
2019-08-18T07:15:05,42.805,6.029,-0.036,0.0,-0.046,103.0,107.0,101.0,13.4,1505.3,326.8,-0.7,1.8,2470.108,13.33,0.036,270.0
2019-08-18T07:18:06,42.805,6.029,-0.021,0.004,-0.045,104.0,107.0,100.0,13.3,1505.3,324.5,-0.7,1.9,2470.125,13.33,0.021,280.8
2019-08-18T07:21:07,42.805,6.029,-0.009,-0.007,0.0,105.0,106.0,100.0,13.3,1505.4,323.8,-0.7,1.8,2470.152,13.34,0.011,232.1
2019-08-18T07:24:08,42.805,6.029,0.027,-0.01,0.029,104.0,105.0,100.0,13.4,1505.4,326.7,-0.7,1.8,2470.13,13.34,0.028,110.3
2019-08-18T07:27:09,42.805,6.029,0.039,-0.011,0.003,101.0,107.0,99.0,13.4,1505.3,326.4,-0.7,1.8,2470.121,13.33,0.04,105.7
2019-08-18T07:30:10,42.805,6.029,0.022,0.004,0.0,102.0,106.0,100.0,13.4,1505.3,326.2,-0.7,1.9,2470.122,13.33,0.022,79.7
2019-08-18T07:33:11,42.805,6.029,0.008,0.001,-0.025,104.0,107.0,99.0,13.4,1505.3,326.7,-0.8,1.8,2470.103,13.33,0.008,82.9
2019-08-18T07:36:12,42.805,6.029,0.031,-0.01,-0.007,104.0,106.0,100.0,13.3,1505.3,326.4,-0.7,1.8,2470.157,13.33,0.032,107.9
2019-08-18T07:39:13,42.805,6.029,-0.006,-0.002,0.008,104.0,107.0,100.0,13.4,1505.3,326.3,-0.7,1.8,2470.147,13.33,0.006,251.6
2019-08-18T07:42:14,42.805,6.029,-0.002,-0.011,-0.001,103.0,106.0,101.0,13.4,1505.4,324.4,-0.7,1.8,2470.107,13.34,0.011,190.3
2019-08-18T07:45:15,42.805,6.029,0.001,-0.008,-0.004,104.0,108.0,99.0,13.3,1505.4,323.3,-0.7,1.8,2470.129,13.34,0.008,172.9
2019-08-18T07:48:16,42.805,6.029,0.0,-0.005,-0.014,103.0,106.0,99.0,13.4,1505.4,327.2,-0.7,1.8,2470.154,13.34,0.005,180.0
2019-08-18T07:51:17,42.805,6.029,0.001,0.018,-0.036,103.0,108.0,99.0,13.4,1505.4,324.5,-0.7,1.8,2470.151,13.34,0.018,3.2
2019-08-18T07:54:18,42.805,6.029,-0.011,0.011,-0.009,104.0,107.0,100.0,13.3,1505.4,324.7,-0.7,1.8,2470.13,13.34,0.015,315.0
2019-08-18T07:57:19,42.805,6.029,-0.011,0.004,-0.033,103.0,110.0,99.0,13.3,1505.4,324.1,-0.7,1.8,2470.147,13.34,0.011,290.0
2019-08-18T08:00:20,42.805,6.029,-0.016,0.001,-0.02,104.0,107.0,101.0,13.3,1505.4,327.0,-0.7,1.8,2470.149,13.34,0.016,273.6
2019-08-18T08:03:21,42.805,6.029,-0.014,0.006,-0.003,104.0,107.0,100.0,13.4,1505.4,327.6,-0.7,1.8,2470.122,13.34,0.015,293.2
2019-08-18T08:06:22,42.805,6.029,-0.036,-0.002,-0.056,104.0,106.0,101.0,13.3,1505.4,324.1,-0.7,1.9,2470.134,13.34,0.036,266.8
2019-08-18T08:09:23,42.805,6.029,-0.012,-0.013,-0.01,103.0,107.0,100.0,13.4,1505.4,323.6,-0.7,1.8,2470.158,13.34,0.017,222.7
2019-08-18T08:12:24,42.805,6.029,0.036,0.014,0.033,106.0,105.0,100.0,13.4,1505.4,323.4,-0.7,1.8,2470.142,13.34,0.038,68.8
2019-08-18T08:15:25,42.805,6.029,0.006,0.0,0.007,103.0,107.0,99.0,13.4,1505.4,325.3,-0.7,1.8,2470.126,13.34,0.006,90.0
2019-08-18T08:18:26,42.805,6.029,0.01,0.004,-0.016,104.0,106.0,99.0,13.4,1505.4,327.8,-0.7,1.8,2470.123,13.34,0.01,68.2
2019-08-18T08:21:27,42.805,6.029,0.023,-0.004,0.024,105.0,107.0,100.0,13.3,1505.3,327.4,-0.7,1.8,2470.171,13.33,0.023,99.9
2019-08-18T08:24:28,42.805,6.029,-0.002,-0.013,-0.005,102.0,109.0,100.0,13.4,1505.3,324.7,-0.7,1.8,2470.162,13.33,0.013,188.7
2019-08-18T08:27:29,42.805,6.029,0.019,0.012,0.028,104.0,107.0,98.0,13.4,1505.3,324.3,-0.7,1.8,2470.174,13.33,0.022,57.7
2019-08-18T08:30:30,42.805,6.029,-0.01,-0.005,-0.026,103.0,108.0,101.0,13.4,1505.3,327.8,-0.7,1.9,2470.121,13.33,0.011,243.4
2019-08-18T08:33:31,42.805,6.029,0.037,-0.005,-0.012,104.0,107.0,100.0,13.4,1505.3,324.7,-0.7,1.8,2470.2,13.33,0.037,97.7
2019-08-18T08:36:32,42.805,6.029,0.023,0.0,-0.011,104.0,107.0,100.0,13.3,1505.3,326.4,-0.7,1.9,2470.098,13.33,0.023,90.0
2019-08-18T08:39:33,42.805,6.029,0.03,-0.004,-0.016,104.0,106.0,100.0,13.3,1505.3,323.9,-0.7,1.8,2470.156,13.33,0.03,97.6
2019-08-18T08:42:34,42.805,6.029,0.023,0.0,0.027,104.0,106.0,99.0,13.4,1505.3,327.8,-0.7,1.8,2470.121,13.33,0.023,90.0
2019-08-18T08:45:35,42.805,6.029,0.01,0.0,0.017,104.0,106.0,101.0,13.4,1505.4,325.3,-0.7,1.9,2470.153,13.34,0.01,90.0
2019-08-18T08:48:36,42.805,6.029,0.006,-0.001,-0.013,102.0,108.0,99.0,13.3,1505.3,322.9,-0.7,1.8,2470.193,13.33,0.006,99.5
2019-08-18T08:51:37,42.805,6.029,0.015,-0.006,-0.007,102.0,108.0,100.0,13.3,1505.3,327.7,-0.7,1.8,2470.151,13.33,0.016,111.8
2019-08-18T08:54:38,42.805,6.029,0.025,0.005,0.058,103.0,107.0,100.0,13.3,1505.4,326.8,-0.7,1.8,2470.17,13.34,0.025,78.7
2019-08-18T08:57:39,42.805,6.029,-0.009,-0.003,-0.026,103.0,106.0,99.0,13.4,1505.4,323.3,-0.8,1.8,2470.14,13.34,0.009,251.6
2019-08-18T09:00:40,42.805,6.029,0.005,0.01,0.032,102.0,108.0,100.0,13.3,1505.4,328.4,-0.7,1.8,2470.122,13.34,0.011,26.6
2019-08-18T09:03:41,42.805,6.029,0.0,0.01,-0.009,103.0,107.0,100.0,13.4,1505.3,327.2,-0.7,1.8,2470.139,13.33,0.01,0.0
2019-08-18T09:06:42,42.805,6.029,0.016,0.0,0.005,103.0,106.0,101.0,13.4,1505.4,326.0,-0.7,1.8,2470.124,13.34,0.016,90.0
2019-08-18T09:09:43,42.805,6.029,0.038,0.027,-0.009,103.0,105.0,100.0,13.4,1505.4,324.6,-0.7,1.8,2470.157,13.34,0.046,54.6
2019-08-18T09:12:44,42.805,6.029,0.046,-0.006,-0.006,104.0,107.0,99.0,13.4,1505.4,327.1,-0.7,1.8,2470.16,13.34,0.046,97.4
2019-08-18T09:15:45,42.805,6.029,0.01,0.0,-0.005,103.0,108.0,100.0,13.4,1505.4,324.6,-0.7,1.8,2470.156,13.34,0.01,90.0
2019-08-18T09:18:46,42.805,6.029,0.062,-0.005,0.032,103.0,106.0,100.0,13.3,1505.3,324.7,-0.7,1.9,2470.127,13.33,0.062,94.6
2019-08-18T09:21:47,42.805,6.029,0.034,-0.001,0.023,103.0,107.0,99.0,13.3,1505.3,325.4,-0.7,1.9,2470.163,13.33,0.034,91.7
2019-08-18T09:24:48,42.805,6.029,0.027,-0.003,0.018,102.0,107.0,100.0,13.4,1505.3,324.7,-0.7,1.8,2470.119,13.33,0.027,96.3
2019-08-18T09:27:49,42.805,6.029,0.042,0.002,0.053,102.0,106.0,99.0,13.4,1505.3,324.6,-0.7,1.8,2470.18,13.33,0.042,87.3
2019-08-18T09:30:50,42.805,6.029,0.012,-0.005,0.0,103.0,107.0,100.0,13.4,1505.4,324.9,-0.7,1.9,2470.143,13.34,0.013,112.6